When you browse on this site, cookies collect data to enhance your experience and personalize the content and advertising you see.
Visit our Privacy Policy to learn more. By continuing to use the site, you agree to this use of cookies and data.
  • In Österreich
  • Länderverzeichnis
  • Für 7 Tage
  • Wassertemperatur
  • Wetterkarte
  • News
  • Widgets
  • user-avatar
    Anmelden

    Stündliche Wetter Lowetsch

    Heute, 16 Oktober, Mittwoch

    Zeit Temperatur Niederschläge Wind Luftdruck Luftfeuchtigkeit
    00:00 +16°C° 0 mm 1 m/S 738 mmHg 47%
    01:00 +16°C° 0 mm 1 m/S 738 mmHg 48%
    02:00 +15°C° 0 mm 1 m/S 738 mmHg 51%
    03:00 +14°C° 0 mm 0 m/S 738 mmHg 51%
    04:00 +14°C° 0 mm 0 m/S 738 mmHg 52%
    05:00 +13°C° 0 mm 0 m/S 737 mmHg 52%
    06:00 +14°C° 0 mm 0 m/S 737 mmHg 51%
    07:00 +15°C° 0 mm 0 m/S 738 mmHg 51%
    08:00 +16°C° 0 mm 0 m/S 738 mmHg 48%
    09:00 +20°C° 0 mm 1 m/S 738 mmHg 43%
    10:00 +22°C° 0 mm 1 m/S 738 mmHg 39%
    11:00 +24°C° 0 mm 1 m/S 738 mmHg 35%
    12:00 +25°C° 0 mm 1 m/S 738 mmHg 33%
    13:00 +25°C° 0 mm 2 m/S 738 mmHg 31%
    14:00 +26°C° 0 mm 2 m/S 738 mmHg 30%
    15:00 +25°C° 0 mm 2 m/S 737 mmHg 34%
    16:00 +24°C° 0 mm 1 m/S 737 mmHg 38%
    17:00 +23°C° 0 mm 1 m/S 737 mmHg 41%
    18:00 +21°C° 0 mm 1 m/S 737 mmHg 45%
    19:00 +20°C° 0 mm 1 m/S 737 mmHg 49%
    20:00 +18°C° 0 mm 1 m/S 737 mmHg 53%
    21:00 +18°C° 0 mm 1 m/S 737 mmHg 53%
    22:00 +18°C° 0 mm 1 m/S 738 mmHg 54%
    23:00 +15°C° 0 mm 0 m/S 738 mmHg 55%

    Morgen, 17 Oktober, Donnerstag

    Zeit Temperatur Niederschläge Wind Luftdruck Luftfeuchtigkeit
    00:00 +15°C° 0 mm 0 m/S 738 mmHg 56%
    01:00 +14°C° 0 mm 0 m/S 738 mmHg 57%
    02:00 +14°C° 0 mm 0 m/S 738 mmHg 58%
    03:00 +14°C° 0 mm 0 m/S 738 mmHg 59%
    04:00 +15°C° 0 mm 1 m/S 738 mmHg 59%
    05:00 +15°C° 0 mm 1 m/S 738 mmHg 60%
    06:00 +14°C° 0 mm 0 m/S 738 mmHg 58%
    07:00 +15°C° 0 mm 0 m/S 738 mmHg 57%
    08:00 +16°C° 0 mm 0 m/S 738 mmHg 55%
    09:00 +18°C° 0 mm 0 m/S 738 mmHg 49%
    10:00 +22°C° 0 mm 1 m/S 739 mmHg 44%
    11:00 +24°C° 0 mm 1 m/S 739 mmHg 38%
    12:00 +24°C° 0 mm 1 m/S 738 mmHg 36%
    13:00 +25°C° 0 mm 1 m/S 738 mmHg 34%
    14:00 +26°C° 0 mm 1 m/S 738 mmHg 32%
    15:00 +25°C° 0 mm 1 m/S 738 mmHg 35%
    16:00 +24°C° 0 mm 1 m/S 738 mmHg 38%
    17:00 +23°C° 0 mm 1 m/S 738 mmHg 41%
    18:00 +22°C° 0 mm 1 m/S 738 mmHg 44%
    19:00 +20°C° 0 mm 1 m/S 738 mmHg 47%
    20:00 +19°C° 0 mm 1 m/S 738 mmHg 50%
    21:00 +18°C° 0 mm 1 m/S 738 mmHg 51%
    22:00 +18°C° 0 mm 1 m/S 738 mmHg 52%
    23:00 +18°C° 0 mm 1 m/S 738 mmHg 54%

    übermorgen, 18 Oktober, Freitag

    Zeit Temperatur Niederschläge Wind Luftdruck Luftfeuchtigkeit
    00:00 +16°C° 0 mm 1 m/S 738 mmHg 54%
    01:00 +16°C° 0 mm 1 m/S 738 mmHg 55%
    02:00 +16°C° 0 mm 1 m/S 738 mmHg 56%
    03:00 +14°C° 0 mm 0 m/S 738 mmHg 57%
    04:00 +14°C° 0 mm 0 m/S 738 mmHg 57%
    05:00 +14°C° 0 mm 0 m/S 738 mmHg 58%
    06:00 +15°C° 0 mm 0 m/S 738 mmHg 57%
    07:00 +16°C° 0 mm 0 m/S 739 mmHg 55%
    08:00 +16°C° 0 mm 0 m/S 739 mmHg 54%
    09:00 +18°C° 0 mm 0 m/S 739 mmHg 48%
    10:00 +22°C° 0 mm 1 m/S 739 mmHg 43%
    11:00 +24°C° 0 mm 1 m/S 739 mmHg 37%
    12:00 +25°C° 0 mm 1 m/S 738 mmHg 35%
    13:00 +26°C° 0 mm 2 m/S 738 mmHg 33%
    14:00 +27°C° 0 mm 2 m/S 738 mmHg 31%
    15:00 +26°C° 0 mm 2 m/S 737 mmHg 34%
    16:00 +25°C° 0 mm 2 m/S 737 mmHg 37%
    17:00 +24°C° 0 mm 2 m/S 737 mmHg 39%
    18:00 +22°C° 0 mm 1 m/S 737 mmHg 42%
    19:00 +21°C° 0 mm 1 m/S 737 mmHg 46%
    20:00 +19°C° 0 mm 1 m/S 737 mmHg 49%
    21:00 +19°C° 0 mm 1 m/S 737 mmHg 50%
    22:00 +18°C° 0 mm 1 m/S 738 mmHg 51%
    23:00 +18°C° 0 mm 1 m/S 738 mmHg 53%

    19 Oktober, Samstag

    Zeit Temperatur Niederschläge Wind Luftdruck Luftfeuchtigkeit
    00:00 +18°C° 0 mm 1 m/S 738 mmHg 54%
    01:00 +16°C° 0 mm 1 m/S 738 mmHg 55%
    02:00 +16°C° 0 mm 1 m/S 738 mmHg 56%
    03:00 +16°C° 0 mm 1 m/S 738 mmHg 56%
    04:00 +16°C° 0 mm 1 m/S 738 mmHg 57%
    05:00 +15°C° 0 mm 0 m/S 738 mmHg 57%
    06:00 +15°C° 0 mm 0 m/S 738 mmHg 55%
    07:00 +16°C° 0 mm 0 m/S 738 mmHg 54%
    08:00 +17°C° 0 mm 0 m/S 738 mmHg 52%
    09:00 +19°C° 0 mm 0 m/S 738 mmHg 47%
    10:00 +23°C° 0 mm 1 m/S 739 mmHg 42%
    11:00 +25°C° 0 mm 1 m/S 739 mmHg 37%
    12:00 +26°C° 0 mm 1 m/S 738 mmHg 35%
    13:00 +26°C° 0 mm 1 m/S 738 mmHg 34%
    14:00 +27°C° 0 mm 2 m/S 738 mmHg 33%
    15:00 +26°C° 0 mm 2 m/S 738 mmHg 36%
    16:00 +25°C° 0 mm 2 m/S 738 mmHg 39%
    17:00 +24°C° 0 mm 1 m/S 737 mmHg 42%
    18:00 +23°C° 0 mm 1 m/S 738 mmHg 44%
    19:00 +21°C° 0 mm 1 m/S 738 mmHg 47%
    20:00 +20°C° 0 mm 1 m/S 738 mmHg 50%
    21:00 +20°C° 0 mm 1 m/S 738 mmHg 50%
    22:00 +19°C° 0 mm 1 m/S 739 mmHg 51%
    23:00 +19°C° 0 mm 1 m/S 739 mmHg 51%

    20 Oktober, Sonntag

    Zeit Temperatur Niederschläge Wind Luftdruck Luftfeuchtigkeit
    00:00 +18°C° 0 mm 1 m/S 739 mmHg 52%
    01:00 +18°C° 0 mm 1 m/S 739 mmHg 53%
    02:00 +18°C° 0 mm 1 m/S 739 mmHg 53%
    03:00 +18°C° 0 mm 1 m/S 739 mmHg 54%
    04:00 +16°C° 0 mm 1 m/S 739 mmHg 54%
    05:00 +16°C° 0 mm 1 m/S 739 mmHg 54%
    06:00 +18°C° 0 mm 1 m/S 739 mmHg 53%
    07:00 +17°C° 0 mm 0 m/S 739 mmHg 52%
    08:00 +17°C° 0 mm 0 m/S 740 mmHg 51%
    09:00 +20°C° 0 mm 0 m/S 740 mmHg 46%
    10:00 +24°C° 0 mm 1 m/S 740 mmHg 41%
    11:00 +26°C° 0 mm 1 m/S 740 mmHg 35%
    12:00 +26°C° 0 mm 1 m/S 740 mmHg 34%
    13:00 +27°C° 0 mm 2 m/S 739 mmHg 32%
    14:00 +28°C° 0 mm 2 m/S 739 mmHg 30%
    15:00 +27°C° 0 mm 2 m/S 739 mmHg 33%
    16:00 +26°C° 0 mm 2 m/S 739 mmHg 36%
    17:00 +25°C° 0 mm 1 m/S 739 mmHg 39%
    18:00 +23°C° 0 mm 1 m/S 739 mmHg 42%
    19:00 +22°C° 0 mm 1 m/S 739 mmHg 46%
    20:00 +20°C° 0 mm 1 m/S 739 mmHg 49%
    21:00 +20°C° 0 mm 1 m/S 740 mmHg 50%
    22:00 +20°C° 0 mm 1 m/S 740 mmHg 51%
    23:00 +19°C° 0 mm 1 m/S 740 mmHg 52%

    21 Oktober, Montag

    Zeit Temperatur Niederschläge Wind Luftdruck Luftfeuchtigkeit
    00:00 +19°C° 0 mm 1 m/S 740 mmHg 53%
    01:00 +18°C° 0 mm 1 m/S 740 mmHg 54%
    02:00 +18°C° 0 mm 1 m/S 740 mmHg 55%
    03:00 +18°C° 0 mm 1 m/S 740 mmHg 56%
    04:00 +16°C° 0 mm 1 m/S 740 mmHg 57%
    05:00 +16°C° 0 mm 1 m/S 740 mmHg 58%
    06:00 +18°C° 0 mm 1 m/S 740 mmHg 57%
    07:00 +18°C° 0 mm 1 m/S 741 mmHg 56%
    08:00 +19°C° 0 mm 1 m/S 741 mmHg 56%
    09:00 +21°C° 0 mm 1 m/S 741 mmHg 50%
    10:00 +23°C° 0 mm 1 m/S 741 mmHg 45%
    11:00 +25°C° 0 mm 1 m/S 741 mmHg 39%
    12:00 +25°C° 0 mm 1 m/S 741 mmHg 37%
    13:00 +26°C° 0 mm 2 m/S 741 mmHg 36%
    14:00 +27°C° 0 mm 2 m/S 741 mmHg 34%
    15:00 +26°C° 0 mm 2 m/S 740 mmHg 37%
    16:00 +25°C° 0 mm 1 m/S 740 mmHg 39%
    17:00 +24°C° 0 mm 1 m/S 740 mmHg 42%
    18:00 +22°C° 0 mm 1 m/S 740 mmHg 46%
    19:00 +21°C° 0 mm 1 m/S 740 mmHg 49%
    20:00 +19°C° 0 mm 1 m/S 741 mmHg 52%
    21:00 +19°C° 0 mm 1 m/S 741 mmHg 54%
    22:00 +18°C° 0 mm 1 m/S 741 mmHg 55%
    23:00 +16°C° 0 mm 0 m/S 741 mmHg 57%
    Mehr zeigen